Location: Le Rocchette
(44.3500°N, 7.8333°E)
Time: 16:24:39
(UTC+00:00)

Cosmos 1980 Rocket - Pass Details

Date: 17 November 2019
Orbit: 827 x 851 km, 71.0° (Epoch: 06 December)

Event Time Altitude Azimuth Distance (km) Brightness Sun altitude
Exits shadow 05:01:53 20° 262° (W) 1,846 3.4 -15.1°
Maximum altitude 05:01:59 20° 260° (W) 1,846 3.4 -15.1°
Drops below altitude 10° 05:06:02 10° 214° (SW) 2,464 4.4 -14.4°
Sets 05:09:03 0° 198° (SSW) 3,391 5.3 -13.9°
